[[{"header":{"parameterUnit":"m.s-1","parameterCategory":1,"la1":30.2991,"la2":30.254,"lo1":-89.0895,"lo2":-89.0444,"dy":0.0017,"dx":0.0017,"nx":28,"ny":28,"refTime":"2025-04-29T09:00:00:Z","depth":0,"parameterNumber":2,"parameterNumberName":"U-component_of_WINDS"},"data":[0,0,0,0,0,0,0,0,0,0,0,0,0,0,0,0,0,0,0,0,0,0,0,0,0,0,0,0,0,0,0,0,0,0,0,0,0,0,0,0,0,0,0,0,0,0,0,0,0,0,0,0,0,0,0,0,0,0,-2.759,-2.7591,0,-2.7669,-2.767,-2.7671,-2.7673,-2.7672,-2.7671,-2.767,-2.7748,-2.775,-2.7753,0,0,0,0,0,0,0,0,0,0,0,0,0,-2.7438,-2.7441,-2.759,-2.7591,-2.7592,-2.7669,-2.767,-2.7671,-2.7673,-2.7672,-2.767,-2.7669,-2.7747,-2.775,-2.7754,0,0,0,0,0,0,0,0,0,0,0,0,0,-2.7509,-2.7442,-2.759,-2.7602,-2.7604,-2.7669,-2.767,-2.7671,-2.7673,-2.7672,-2.767,-2.7669,-2.7745,-2.775,-2.7754,-2.7811,0,0,-2.7768,-2.777,0,0,0,0,0,0,0,0,-2.7505,-2.7515,-2.7599,-2.7601,-2.7604,-2.766,-2.7645,-2.7718,-2.7673,-2.7647,-2.767,-2.7668,-2.7719,-2.7726,-2.7744,-2.7814,-2.7818,-2.7768,-2.7771,-2.7773,-2.7774,0,0,0,0,0,0,0,-2.75,-2.7511,-2.7621,-2.76,-2.7603,-2.7603,-2.7612,-2.7659,-2.769,-2.7649,-2.7649,-2.7659,-2.772,-2.7739,-2.7746,-2.7819,-2.7768,-2.7772,-2.7775,-2.7776,-2.7941,-2.7943,0,0,0,0,0,0,-2.7493,-2.7507,-2.7618,-2.7623,-2.755,-2.7607,-2.7616,-2.7643,-2.769,-2.7695,-2.766,-2.7659,-2.7732,-2.774,-2.7748,-2.7818,-2.7773,-2.7777,-2.7779,-2.7939,-2.7941,-2.7943,0,0,0,0,0,0,-2.749,-2.7503,-2.7615,-2.7566,-2.758,-2.7611,-2.7641,-2.7645,-2.7665,-2.7698,-2.7703,-2.7674,-2.7732,-2.7742,-2.7796,-2.782,-2.7779,-2.7783,-2.7937,-2.794,-2.7942,-2.7957,0,0,0,0,0,0,-2.7486,-2.7502,-2.7524,-2.7566,-2.7582,-2.7662,-2.7642,-2.7648,-2.7673,-2.7672,-2.7713,-2.7718,-2.7731,-2.7789,-2.78,-2.7826,-2.7786,-2.7935,-2.7938,-2.7941,-2.7955,-2.796,-2.7965,0,0,0,0,0,-2.748,-2.7524,-2.7525,-2.7539,-2.7611,-2.7663,-2.7673,-2.7688,-2.7675,-2.7697,-2.7719,-2.7717,-2.7817,-2.7794,-2.7807,-2.7834,-2.7934,-2.7938,-2.7941,-2.7952,-2.7959,-2.7964,0,0,0,0,0,0,-2.7482,-2.753,-2.7531,-2.759,-2.7623,-2.7664,-2.7692,-2.7694,-2.7731,-2.7728,-2.7745,-2.7754,-2.7807,-2.7827,-2.7801,-2.7892,-2.7873,-2.788,-2.7877,-2.7884,-2.7889,-2.7882,-2.779,0,0,0,0,0,-2.749,-2.753,-2.7569,-2.7617,-2.7634,-2.766,-2.7683,-2.7693,-2.7727,-2.774,-2.7766,-2.7798,-2.7837,-2.7862,-2.7899,-2.7958,-2.7967,-2.7983,-2.7988,-2.7992,-2.7997,-2.803,-2.8038,-2.7956,-2.7956,-2.7956,0,0,-2.7506,-2.7537,-2.756,-2.7618,-2.7645,-2.7685,-2.7671,-2.7714,-2.7744,-2.7746,-2.7799,-2.7819,-2.7856,-2.7913,-2.7939,-2.793,-2.8022,-2.7997,-2.8,-2.8003,-2.8035,-2.8042,-2.8049,-2.7958,-2.7958,-2.7957,0,0,-2.7555,-2.7582,-2.7626,-2.7653,-2.7694,-2.7712,-2.7722,-2.7763,-2.7777,-2.783,-2.7834,-2.7869,-2.7935,-2.7962,-2.7984,-2.8045,-2.8045,-2.8057,-2.8082,-2.8114,-2.8121,-2.8126,-2.8148,-2.8155,-2.8062,-2.8062,-2.8062,0,-2.7568,-2.7629,-2.7647,-2.7691,-2.7716,-2.7723,-2.7767,-2.7792,-2.7842,-2.7859,-2.785,-2.7934,-2.7959,-2.8023,-2.8038,-2.8056,-2.8068,-2.8051,-2.8118,-2.8124,-2.813,-2.8151,-2.8159,-2.8063,-2.8063,-2.8063,-2.8063,0,-2.7644,-2.7687,-2.7717,-2.7767,-2.7796,-2.784,-2.7864,-2.7891,-2.7899,-2.7917,-2.7972,-2.8003,-2.8047,-2.8064,-2.807,-2.8128,-2.8122,-2.8115,-2.8096,-2.8139,-2.8158,-2.8166,-2.8065,-2.8065,-2.8064,-2.8064,0,0,-2.7694,-2.7756,-2.7767,-2.779,-2.7836,-2.7869,-2.7913,-2.7958,-2.7981,-2.8016,-2.8053,-2.811,-2.8105,-2.813,-2.8141,-2.8169,-2.8215,-2.8159,-2.816,-2.8168,-2.828,-2.8284,-2.8293,-2.8216,-2.8218,-2.8219,-2.8277,0,-2.7748,-2.7827,-2.7845,-2.7912,-2.7952,-2.796,-2.7998,-2.8031,-2.805,-2.8086,-2.8107,-2.8147,-2.8137,-2.8153,-2.8181,-2.8203,-2.8238,-2.82,-2.8249,-2.8251,-2.8238,-2.8303,-2.8307,-2.836,-2.8285,-2.8286,-2.8287,0,-2.7819,-2.7858,-2.793,-2.7972,-2.799,-2.8024,-2.8067,-2.8101,-2.8139,-2.8151,-2.818,-2.8188,-2.8234,-2.8214,-2.8277,-2.8251,-2.8273,-2.8287,-2.829,-2.8293,-2.827,-2.8308,-2.8378,-2.8385,-2.8299,-2.8298,-2.8298,0,-2.7848,-2.7918,-2.797,-2.799,-2.8041,-2.8065,-2.8087,-2.8123,-2.8149,-2.8187,-2.8204,-2.8246,-2.8269,-2.8301,-2.832,-2.8304,-2.8382,-2.8363,-2.8392,-2.8392,-2.8406,-2.8405,-2.8479,-2.8423,-2.8422,-2.8422,-2.8422,0,-2.7905,-2.7948,-2.7984,-2.8016,-2.8065,-2.8086,-2.8134,-2.8156,-2.8188,-2.8224,-2.8234,-2.8267,-2.8291,-2.8328,-2.8344,-2.8393,-2.8403,-2.8414,-2.8417,-2.8412,-2.8411,-2.8426,-2.8422,-2.8424,-2.8424,-2.8424,-2.8423,0,-2.7944,-2.797,-2.8027,-2.8072,-2.8084,-2.8118,-2.8156,-2.8187,-2.8208,-2.8253,-2.8265,-2.8297,-2.8341,-2.8364,-2.8418,-2.8429,-2.8484,-2.8486,-2.8472,-2.8473,-2.85,-2.8497,-2.8585,-2.8598,-2.8534,-2.8534,-2.8535,0,-2.7977,-2.8011,-2.806,-2.8086,-2.8109,-2.815,-2.8177,-2.82,-2.8228,-2.8274,-2.8299,-2.8344,-2.8381,-2.8451,-2.8478,-2.852,-2.8522,-2.8551,-2.8528,-2.8523,-2.8522,-2.8519,-2.8522,-2.8554,-2.8554,-2.8555,-2.8555,0,-2.8034,-2.8046,-2.8085,-2.813,-2.8163,-2.8199,-2.8234,-2.8254,-2.8282,-2.8313,-2.8359,-2.8388,-2.8445,-2.8489,-2.8534,-2.8556,-2.856,-2.8563,-2.8571,-2.8566,-2.8556,-2.8561,-2.8481,-2.856,-2.8559,-2.8559,-2.8559,-2.8559,-2.8071,-2.8102,-2.8142,-2.8186,-2.8215,-2.8248,-2.828,-2.8306,-2.8345,-2.8393,-2.8404,-2.8453,-2.849,-2.8551,-2.8575,-2.8612,-2.8606,-2.8619,-2.8622,-2.8625,-2.8625,-2.8552,-2.8621,-2.8621,-2.8621,-2.862,-2.862,0,-2.8128,-2.8155,-2.8195,-2.8245,-2.828,-2.8283,-2.8323,-2.8351,-2.8394,-2.8429,-2.8466,-2.8519,-2.8563,-2.8595,-2.8639,-2.8663,-2.8666,-2.8674,-2.8671,-2.8676,-2.8629,-2.8616,-2.867,-2.867,-2.867,-2.867,-2.867,-2.867,-2.8162,-2.8214,-2.823,-2.8298,-2.8324,-2.8372,-2.8394,-2.8425,-2.8454,-2.8513,-2.8549,-2.8571,-2.8605,-2.8652,-2.8692,-2.87,-2.8715,-2.8723,-2.8731,-2.8685,-2.868,-2.8675,-2.8663,-2.8726,-2.8726,-2.8776,-2.8776,-2.8776]},{"header":{"parameterUnit":"m.s-1","parameterCategory":1,"la1":30.2991,"la2":30.254,"lo1":-89.0895,"lo2":-89.0444,"dy":0.0017,"dx":0.0017,"nx":28,"ny":28,"refTime":"2025-04-29T09:00:00:Z","depth":0,"parameterNumber":3,"parameterNumberName":"V-component_of_WINDS"},"data":[0,0,0,0,0,0,0,0,0,0,0,0,0,0,0,0,0,0,0,0,0,0,0,0,0,0,0,0,0,0,0,0,0,0,0,0,0,0,0,0,0,0,0,0,0,0,0,0,0,0,0,0,0,0,0,0,0,0,2.7302,2.7302,0,2.7285,2.7285,2.7285,2.7231,2.723,2.7229,2.7228,2.7212,2.7212,2.7213,0,0,0,0,0,0,0,0,0,0,0,0,0,2.7291,2.7291,2.7302,2.7302,2.7302,2.7285,2.7285,2.7285,2.7231,2.723,2.7229,2.7227,2.7212,2.7212,2.7213,0,0,0,0,0,0,0,0,0,0,0,0,0,2.7287,2.7291,2.7302,2.7273,2.7271,2.7285,2.7285,2.7285,2.7232,2.723,2.7228,2.7227,2.7211,2.7212,2.7213,2.7255,0,0,2.7216,2.7217,0,0,0,0,0,0,0,0,2.7287,2.7288,2.7278,2.7275,2.7272,2.7259,2.7275,2.7275,2.7232,2.7247,2.7228,2.7226,2.7229,2.7228,2.7229,2.7255,2.7254,2.7216,2.7217,2.7218,2.7218,0,0,0,0,0,0,0,2.7288,2.7288,2.7296,2.7278,2.7274,2.7262,2.7259,2.7275,2.7248,2.7245,2.7241,2.724,2.7227,2.7228,2.7228,2.7254,2.7216,2.7217,2.7218,2.7218,2.7313,2.7315,0,0,0,0,0,0,2.7292,2.7289,2.7296,2.7295,2.7276,2.7263,2.7261,2.7265,2.7248,2.7243,2.7241,2.7237,2.7227,2.7227,2.7228,2.7276,2.7218,2.7219,2.7219,2.7311,2.7314,2.7316,0,0,0,0,0,0,2.7292,2.7293,2.7297,2.7291,2.729,2.7265,2.7271,2.7265,2.7266,2.7245,2.724,2.7247,2.7226,2.7226,2.7249,2.7274,2.7219,2.722,2.7309,2.7312,2.7315,2.7372,0,0,0,0,0,0,2.7292,2.7293,2.7309,2.7292,2.7291,2.7318,2.7272,2.7266,2.7268,2.7263,2.7249,2.7245,2.7225,2.7248,2.725,2.7275,2.7221,2.7307,2.7311,2.7314,2.7368,2.7377,2.7384,0,0,0,0,0,2.7291,2.7326,2.731,2.7311,2.7309,2.732,2.7319,2.7294,2.7271,2.7286,2.7272,2.7246,2.7271,2.725,2.7252,2.7278,2.7305,2.7309,2.7314,2.7364,2.7375,2.7384,0,0,0,0,0,0,2.7347,2.7323,2.7305,2.7334,2.7329,2.731,2.7329,2.7306,2.7308,2.7303,2.7273,2.727,2.7297,2.729,2.7267,2.7318,2.7284,2.7289,2.7322,2.7332,2.734,2.734,2.7222,0,0,0,0,0,2.7362,2.7372,2.7351,2.7379,2.7378,2.7354,2.7358,2.7339,2.7333,2.733,2.7318,2.7314,2.7321,2.7326,2.7331,2.7367,2.7363,2.7386,2.7394,2.7401,2.7405,2.7423,2.7433,2.733,2.733,2.733,0,0,2.7395,2.7383,2.7391,2.739,2.7384,2.7395,2.7353,2.7366,2.7374,2.7333,2.7353,2.7344,2.7337,2.7367,2.7379,2.7361,2.7433,2.7406,2.7412,2.7412,2.7429,2.7439,2.7447,2.7333,2.7332,2.7332,0,0,2.7459,2.7451,2.7474,2.7469,2.746,2.7444,2.745,2.7434,2.7427,2.7447,2.7416,2.7426,2.7438,2.7434,2.7434,2.7499,2.7474,2.7501,2.7543,2.7562,2.757,2.7577,2.76,2.7608,2.7506,2.7506,2.7506,0,2.75,2.7515,2.7488,2.7504,2.7505,2.7467,2.749,2.7487,2.7481,2.7482,2.7463,2.7478,2.7471,2.7499,2.7514,2.7516,2.7521,2.7502,2.7571,2.7578,2.7584,2.7605,2.7614,2.7509,2.7509,2.7509,2.7508,0,2.7567,2.7578,2.7597,2.7592,2.7595,2.7614,2.7591,2.7597,2.7579,2.7565,2.7587,2.7577,2.7579,2.7585,2.7567,2.7611,2.76,2.7576,2.7541,2.7597,2.7617,2.7625,2.7514,2.7513,2.7512,2.7511,0,0,2.7664,2.7644,2.7652,2.7649,2.7637,2.7645,2.7663,2.7666,2.7672,2.7669,2.7684,2.7696,2.7674,2.7674,2.7655,2.7672,2.7723,2.7646,2.7645,2.766,2.7771,2.7788,2.7798,2.7707,2.7709,2.771,2.7771,0,2.7725,2.7754,2.773,2.7764,2.7774,2.7739,2.7755,2.775,2.7738,2.7746,2.7733,2.7742,2.7712,2.7712,2.7727,2.7714,2.7745,2.7709,2.7721,2.7721,2.7723,2.7808,2.7826,2.7884,2.7778,2.778,2.7781,0,2.7799,2.78,2.7834,2.782,2.7824,2.7838,2.7838,2.7846,2.784,2.783,2.7831,2.7808,2.7825,2.7792,2.7816,2.7792,2.7796,2.779,2.7792,2.7791,2.7754,2.7809,2.7902,2.7911,2.7792,2.7791,2.7791,0,2.7867,2.7876,2.7898,2.7896,2.7881,2.7892,2.7886,2.7878,2.7881,2.7882,2.7884,2.7887,2.7888,2.7892,2.7871,2.7848,2.7897,2.7862,2.789,2.7891,2.7901,2.7901,2.7995,2.7905,2.7905,2.7904,2.7904,0,2.7937,2.7959,2.7928,2.7941,2.7965,2.7939,2.7964,2.7954,2.7948,2.7959,2.793,2.7941,2.7913,2.7922,2.7906,2.7928,2.7929,2.7922,2.7917,2.7924,2.7925,2.7926,2.7921,2.7907,2.7906,2.7906,2.7905,0,2.8016,2.7996,2.8017,2.8001,2.7997,2.8016,2.8002,2.8014,2.8001,2.8015,2.8017,2.7997,2.8005,2.7985,2.7991,2.7981,2.8012,2.8001,2.8014,2.801,2.8039,2.8037,2.8137,2.8149,2.8052,2.8053,2.8053,0,2.8061,2.8077,2.8063,2.8068,2.8064,2.8073,2.8076,2.8051,2.8055,2.8049,2.8062,2.8068,2.8072,2.8088,2.8074,2.8078,2.8067,2.8102,2.8068,2.8074,2.8067,2.8066,2.8068,2.8109,2.811,2.8111,2.8112,0,2.8144,2.8133,2.8138,2.814,2.8144,2.8145,2.8143,2.8149,2.8122,2.8129,2.8137,2.814,2.8146,2.8153,2.8155,2.8149,2.8127,2.8123,2.813,2.8137,2.8143,2.814,2.8033,2.8121,2.812,2.8119,2.8119,2.8118,2.8207,2.822,2.8212,2.8219,2.8215,2.8214,2.8224,2.8212,2.8219,2.8221,2.8207,2.8218,2.8212,2.8212,2.8209,2.8218,2.8203,2.8212,2.8215,2.8217,2.8222,2.8142,2.8219,2.8218,2.8218,2.8218,2.8218,0,2.8288,2.8281,2.8288,2.8286,2.8292,2.827,2.8267,2.8273,2.8284,2.828,2.8284,2.8294,2.83,2.8287,2.8292,2.8302,2.8291,2.8304,2.8302,2.8302,2.8236,2.8229,2.8312,2.8312,2.8312,2.8312,2.8312,2.8312,2.8331,2.8352,2.834,2.8359,2.8352,2.8363,2.8363,2.8363,2.8359,2.8372,2.8377,2.8368,2.836,2.8364,2.837,2.8365,2.8368,2.8384,2.8377,2.8315,2.8306,2.8297,2.8291,2.8385,2.8385,2.8442,2.8442,2.8442]}]]